• Processing (Info)

  • MPEC 2022-A56 : 2022 AE1

    The following Minor Planet Electronic Circular may be linked-to from your own Web pages, but must not otherwise be redistributed electronically.

    A form allowing access to any MPEC is at the bottom of this page.


    Read MPEC 2022-A55 Read MPEC 2022-A57


    M.P.E.C. 2022-A56                               Issued 2022 January 7, 02:11 UT
    
         The Minor Planet Electronic Circulars contain information on unusual
             minor planets and routine data on comets.  They are published
        on behalf of Division F of the International Astronomical Union by the
              Minor Planet Center, Smithsonian Astrophysical Observatory,
                              Cambridge, MA 02138, U.S.A.
    
                 Prepared using the Tamkin Foundation Computer Network
    
                                  MPC@CFA.HARVARD.EDU
                URL https://www.minorplanetcenter.net/    ISSN 1523-6714
    
                                    2022 AE1                                 
    
    
    Observations:
         K22A01E* C2022 01 06.18100603 19 44.50 +17 22 01.5          19.94GVEA056G96
         K22A01E  C2022 01 06.18672903 19 50.27 +17 22 49.5          19.94GVEA056G96
         K22A01E  C2022 01 06.19246403 19 56.05 +17 23 37.8          19.96GVEA056G96
         K22A01E  C2022 01 06.19819303 20 01.83 +17 24 25.7          20.19GVEA056G96
         K22A01E KC2022 01 06.21496503 20 18.71 +17 26 46.0          20.03GVEA056I52
         K22A01E KC2022 01 06.21587703 20 19.63 +17 26 53.4          20.03GVEA056I52
         K22A01E KC2022 01 06.21678903 20 20.54 +17 27 01.0          19.94GVEA056I52
         K22A01E KC2022 01 06.21770103 20 21.45 +17 27 08.7          19.80GVEA056I52
         K22A01E 1C2022 01 06.70519 03 28 36.88 +18 31 38.8          19.8 VVEA056033
         K22A01E 1C2022 01 06.70571 03 28 37.36 +18 31 42.7          19.6 VVEA056033
         K22A01E 1C2022 01 06.70623 03 28 37.85 +18 31 46.9          19.8 VVEA056033
         K22A01E 1C2022 01 06.70685 03 28 38.45 +18 31 51.7          19.7 VVEA056033
         K22A01E 1C2022 01 06.70792 03 28 39.47 +18 31 59.6          19.8 VVEA056033
         K22A01E KC2022 01 06.85632503 30 59.37 +18 50 44.3          19.9 GVEA056204
         K22A01E KC2022 01 06.86267703 31 05.27 +18 51 31.6          19.7 VVEA056L06
         K22A01E KC2022 01 06.86359003 31 06.11 +18 51 38.3          19.7 VVEA056L06
         K22A01E KC2022 01 06.86409803 31 06.61 +18 51 41.9          20.1 VVEA056L06
         K22A01E KC2022 01 06.86535803 31 07.78 +18 51 50.9                VEA056204
         K22A01E KC2022 01 06.87643403 31 18.08 +18 53 12.3                VEA056204
         K22A01E KC2022 01 06.90284503 31 42.19 +18 56 24.8          20.0 GVEA056L01
         K22A01E KC2022 01 06.90440203 31 43.63 +18 56 36.4          20.2 GVEA056L01
         K22A01E KC2022 01 06.90596003 31 45.02 +18 56 47.8          20.2 GVEA056L01
         K22A01E IC2022 01 06.91129503 31 50.01 +18 57 26.9          20.0 GVEA056L01
         K22A01E KC2022 01 07.01032003 33 28.55 +19 09 32.7                uEA056H21
         K22A01E KC2022 01 07.01311603 33 31.10 +19 09 53.0                uEA056H21
         K22A01E KC2022 01 07.01591403 33 33.63 +19 10 13.3          20.4 VuEA056H21
         K22A01E KC2022 01 07.01805903 33 35.59 +19 10 28.8          20.4 VuEA056H21
    
    Observer details:
    033 Karl Schwarzschild Observatory, Tautenburg.  Observers S. Melnikov, C.
        Hoegner, U. Laux, F. Ludwig, B. Stecklum.  Measurer B. Stecklum.  1.34-m
        f/3 Schmidt + CCD.
    204 Schiaparelli Observatory.  Observer L. Buzzi.  0.84-m f/3.5 reflector +
        CCD.
    G96 Mt. Lemmon Survey.  Observer A. R. Gibbs.  Measurers E. J. Christensen, G.
        A. Farneth, D. C. Fuls, A. R. Gibbs, A. D. Grauer, H. Groeller, R. A.
        Kowalski, S. M. Larson, G. J. Leonard, D. Rankin, R. L. Seaman, A.
        Serrrano, F. C. Shelly, K. W. Wierzchos.  1.5-m reflector + 10K CCD.
    H21 Astronomical Research Observatory, Westfield.  Observer R. Holmes.
        Measurers T. Linder, R. Holmes, L. Horn.  0.76-m f/3.0 astrograph + CCD.
    I52 Steward Observatory, Mt. Lemmon Station.  Observer R. A. Kowalski.
        Measurers E. J. Christensen, G. A. Farneth, D. C. Fuls, A. R. Gibbs, A. D.
        Grauer, H. Groeller, R. A. Kowalski, S. M. Larson, G. J. Leonard, D.
        Rankin, R. L. Seaman, A. Serrrano, F. C. Shelly, K. W. Wierzchos.
    L01 Visnjan Observatory, Tican.  Observer K. Korlevic.  1.0-m f/2.9 reflector
        + CCD.
    L06 Sormano 2 Observatory, Bellagio Via Lattea.  Observer G. Ventre.  Measurer
        P. Sicoli.  0.36-m Schmidt-Cassegrain + CCD.
    
    Orbital elements:
    2022 AE1                                                 Earth MOID = 0.0002 AU
    Epoch 2022 Jan. 21.0 TT = JDT 2459600.5                 Veres                   
    M  39.62407              (2000.0)            P               Q                  
    n   0.55494730     Peri.  268.32091     +0.97727973     -0.18305963             
    a   1.4665658      Node   102.21712     +0.21009574     +0.90324755             
    e   0.5441851      Incl.    6.27552     -0.02800202     +0.38811473             
    P   1.78           H   23.34          G   0.15           U   9                  
    Residuals in seconds of arc
    220106 G96  0.0   0.1+    220106 033  0.0   0.1+    220106 204  0.3+  0.0
    220106 G96  0.0   0.1-    220106 033  0.1-  0.2+    220106 L01  0.1+  0.2-
    220106 G96  0.0   0.1+    220106 033  0.0   0.3+    220106 L01  0.0   0.1+
    220106 G96  0.0   0.1-    220106 033  0.1-  0.0     220106 L01  0.7-  0.2+
    220106 I52  0.0   0.0     220106 204  0.3-  0.2-    220106 L01  0.1-  0.6+
    220106 I52  0.0   0.1-    220106 L06  0.2+  0.5+    220107 H21  0.1+  0.1-
    220106 I52  0.0   0.1-    220106 L06  0.1+  0.5+    220107 H21  0.1+  0.1-
    220106 I52  0.1-  0.1-    220106 L06  0.4+  0.3+    220107 H21  0.2-  0.0
    220106 033  0.2+  0.2+    220106 204  0.0   0.1-    220107 H21  0.0   0.0
    
    Ephemeris:
    2022 AE1                 a,e,i = 1.47, 0.54, 6                   q = 0.6685
    Date    TT    R. A. (2000) Decl.     Delta      r    Elong.  Phase     V
    2021 12 08    19 29 46.2 -33 23 02   0.2600  0.7860    34.9   134.2    26.0
    ...
    2021 12 23    21 27 59.4 -30 17 14   0.1076  0.9115    45.5   129.7    24.0
    ...
    2021 12 31    00 46 36.8 -07 03 35   0.06626 0.9841    88.7    87.4    20.5
    ...
    2022 01 06    03 16 33.6 +16 56 23   0.09102 1.0393   125.9    50.0    20.1
    2022 01 07    03 33 15.6 +19 08 47   0.09858 1.0486   129.3    46.5    20.2
    2022 01 08    03 47 57.0 +20 57 28   0.1067  1.0578   132.0    43.7    20.3
    ...
    2022 01 14    04 46 59.2 +26 53 49   0.1623  1.1128   140.0    34.6    21.1
    ...
    2022 01 22    05 27 10.2 +29 32 32   0.2463  1.1852   140.8    31.7    22.0
    ...
    2022 02 06    06 07 00.6 +30 39 10   0.4225  1.3159   134.2    32.5    23.4
    
    M. P. C. Staff               (C) Copyright 2022 MPC           M.P.E.C. 2022-A56
    


    Read MPEC 2022-A55 Read MPEC 2022-A57


    MPEC number:

    Enter an MPEC number in one of the following forms:

    • 1997-B01 (the full form)
    • J97B01 (the packed version of the full form)
    • B01 (the abbreviated form)